Weather in Vzvoz

Russia / Ivanovo Oblast     56°32′41″N   42°18′45″E
temp.,
°C
wind,
m/s
gust,
m/s
humid.,
%
clouds,
%
prec.,
mm/h
press.,
hPa
HPBL,
m
26 february, fri
fri2600:00−11e2297100 0.3 101237
03:00−11ese2496100 0.5 1013120
06:00−11ese4695100 0.1 1011179
09:00−10se4895100 1.3 1007240
12:00−5sse4896100 2.8 1004282
15:000sse3699100 6.8 999194
18:00+3w61599100 5.3 996691
21:00+1w51394100 5.3 995724
27 february, sat
sat2700:00+1w51297100 0.3 994679
03:00+1wnw51197100 0.4 995741
06:00−8nw6129297 0.3 997485
09:00−11n6109098 0.5 1001649
12:00−11n5987100 0.1 1004725
15:00−10n5986100 0.2 1007750
18:00−12n3992100 0.1 1009569
21:00−14nnw259698 0.1 1011121
28 february, sun
sun2800:00−17nnw259727 0.0 1012103
03:00−18nnw239614 0.0 101481
06:00−19nnw239625 0.0 101560
09:00−16nnw249248 0.0 1016229
12:00−11nnw248467 0.0 1016467
15:00−9nnw248784 0.0 1017562
18:00−12nnw1295100 0.0 101721
21:00−14n129690 0.1 102020
1 march, mon
mon100:00−15nnw129765 0.0 102120
03:00−16nw119747 0.0 102320
06:00−15nw119788 0.0 102420
09:00−12wsw129587 0.0 102598
12:00−6wsw238885 0.0 1024413
15:00−4wsw468791 0.1 1022702
18:00−5sw41192100 0.0 1018542
21:00−2wsw41195100 0.5 1016545
2 march, tue
tue200:000wnw51197100 0.3 1012744
03:00+1wnw51197100 1.0 1010676
06:00+1nw51198100 0.6 1009658
09:000nw51197100 1.7 1009776
12:000nw6119697 0.4 1009954
15:00+1nw5108696 0.5 10081057
18:00−1nw4119292 0.1 1009843
21:00−1nw4119495 0.3 1009708